Location: Christchurch
(43.5330°S, 172.6330°E)
Time: 17:10:21
(UTC+13:00)

Meteor 1-25 Rocket - Pass Details

Date: 24 January 2019
Orbit: 836 x 892 km, 81.2° (Epoch: 22 October)

Event Time Altitude Azimuth Distance (km) Brightness Sun altitude
Rises 23:12:12 0° 190° (S) 3,522 8.5 -18.5°
Reaches altitude 10° 23:14:40 10° 188° (S) 2,582 7.6 -18.8°
Maximum altitude 23:20:34 79° 101° (E) 921 4.3 -19.4°
Enters shadow 23:23:15 34° 18° (NNE) 1,430 4.9 -19.7°
